Weather History for KDPL - September, 2013

Change the Weather History Date:

Wednesday, September 18, 2013

  Actual Average (KGSB) Record (KGSB)
Temperature  
Mean Temperature 63 °F -  
Max Temperature 75 °F 80 °F 91 °F (1998)
Min Temperature 51 °F 62 °F 51 °F (2001)
Degree Days  
Heating Degree Days 2    
Growing Degree Days 13 (Base 50)    
Moisture  
Dew Point 53 °F    
Average Humidity 75    
Maximum Humidity 95    
Minimum Humidity 42    
Precipitation  
Precipitation 0.00 in - - ()
Sea Level Pressure  
Sea Level Pressure 30.24 in    
Wind  
Wind Speed 2 mph (NNE)    
Max Wind Speed 12 mph    
Max Gust Speed -    
Visibility 10 miles    
Events      
Averages and records for this station are not official NWS values.
T = Trace of Precipitation, MM = Missing Value Source: NWS Daily Summary

Daily Weather History Graph

Daily Weather History Graph

Search for Another Location

Airport or City:

Trip Planner

Search our weather history database for the weather conditions in past years. The results will help you decide how hot, cold, wet, or windy it might be!

Date:

Astronomy

Sep. 18, 2013 Rise Set
Actual Time 6:57 AM EDT 7:14 PM EDT
Civil Twilight 6:31 AM EDT 7:39 PM EDT
Nautical Twilight 6:02 AM EDT 8:09 PM EDT
Astronomical Twilight 5:32 AM EDT 8:39 PM EDT
Moon 6:36 PM EDT (9/18) 5:58 AM EDT (9/18)
Length of Visible Light 13h 07m
Length of Day
12h 16m
Waxing Gibbous, 99% of the Moon is Illuminated
Sep 18
Waxing Gibbous
Sep 19
Full
Sep 26
Last Quarter
Oct 4
New
Oct 11
First Quarter

Hourly Weather History & Observations

Time (EDT) Temp. Dew Point Humidity Pressure Visibility Wind Dir Wind Speed Gust Speed Precip Events Conditions
12:15 AM 56.5 °F 52.5 °F 87% 30.30 in 10.0 mi Calm Calm - N/A   Clear
12:35 AM 57.2 °F 51.8 °F 82% 30.29 in 10.0 mi Calm Calm - N/A   Clear
12:55 AM 56.7 °F 51.4 °F 83% 30.29 in 10.0 mi Calm Calm - N/A   Clear
1:15 AM 55.9 °F 51.1 °F 84% 30.28 in 10.0 mi Calm Calm - N/A   Clear
1:35 AM 55.8 °F 51.1 °F 84% 30.28 in 10.0 mi Calm Calm - N/A   Clear
1:55 AM 54.5 °F 50.9 °F 88% 30.28 in 10.0 mi Calm Calm - N/A   Clear
2:15 AM 54.3 °F 50.9 °F 88% 30.28 in 10.0 mi Calm Calm - N/A   Clear
2:35 AM 53.6 °F 50.9 °F 91% 30.28 in 10.0 mi Calm Calm - N/A   Clear
2:55 AM 53.1 °F 50.7 °F 92% 30.27 in 10.0 mi Calm Calm - N/A   Clear
3:15 AM 52.2 °F 50.2 °F 93% 30.27 in 10.0 mi Calm Calm - N/A   Clear
3:35 AM 52.9 °F 50.7 °F 92% 30.27 in 10.0 mi NNE 3.5 mph - N/A   Clear
3:55 AM 52.3 °F 50.0 °F 92% 30.26 in 10.0 mi North 3.5 mph - N/A   Clear
4:15 AM 52.3 °F 49.8 °F 91% 30.26 in 10.0 mi North 3.5 mph - N/A   Clear
4:35 AM 52.0 °F 49.5 °F 91% 30.26 in 10.0 mi North 3.5 mph - N/A   Clear
4:55 AM 51.6 °F 49.3 °F 92% 30.26 in 10.0 mi North 3.5 mph - N/A   Clear
5:15 AM 52.0 °F 49.5 °F 91% 30.26 in 10.0 mi Calm Calm - N/A   Clear
5:35 AM 51.6 °F 49.1 °F 91% 30.26 in 10.0 mi Calm Calm - N/A   Clear
5:55 AM 51.6 °F 48.6 °F 89% 30.26 in 10.0 mi NNE 3.5 mph - N/A   Clear
6:15 AM 51.8 °F 48.7 °F 89% 30.26 in 10.0 mi North 3.5 mph - N/A   Clear
6:35 AM 51.3 °F 48.6 °F 90% 30.27 in 10.0 mi NNE 4.6 mph - N/A   Clear
6:55 AM 52.0 °F 49.1 °F 90% 30.27 in 10.0 mi NNE 4.6 mph - N/A   Clear
7:15 AM 51.8 °F 49.1 °F 90% 30.28 in 10.0 mi North 4.6 mph - N/A   Clear
7:35 AM 52.9 °F 49.6 °F 89% 30.28 in 10.0 mi North 4.6 mph - N/A   Clear
7:55 AM 54.0 °F 50.4 °F 88% 30.28 in 10.0 mi North 6.9 mph - N/A   Clear
8:15 AM 55.8 °F 51.4 °F 85% 30.28 in 10.0 mi North 6.9 mph - N/A   Clear
8:35 AM 57.6 °F 52.2 °F 82% 30.28 in 10.0 mi North 9.2 mph - N/A   Clear
8:55 AM 58.8 °F 52.3 °F 79% 30.28 in 10.0 mi North 8.1 mph - N/A   Clear
9:15 AM 60.4 °F 52.9 °F 76% 30.28 in 10.0 mi NNE 6.9 mph - N/A   Clear
9:35 AM 62.6 °F 53.6 °F 72% 30.28 in 10.0 mi North 9.2 mph - N/A   Clear
9:55 AM 64.0 °F 53.4 °F 68% 30.28 in 10.0 mi NNE 5.8 mph - N/A   Clear
10:15 AM 65.1 °F 53.6 °F 66% 30.28 in 10.0 mi NNE 8.1 mph - N/A   Clear
10:35 AM 66.7 °F 54.1 °F 64% 30.29 in 10.0 mi NNE 6.9 mph - N/A   Clear
10:55 AM 68.7 °F 55.2 °F 62% 30.29 in 10.0 mi NNE 6.9 mph - N/A   Clear
11:15 AM 68.4 °F 54.5 °F 61% 30.28 in 10.0 mi North 9.2 mph - N/A   Clear
11:35 AM 69.8 °F 55.2 °F 60% 30.28 in 10.0 mi North 11.5 mph - N/A   Clear
11:55 AM 70.9 °F 55.2 °F 58% 30.26 in 10.0 mi North 8.1 mph - N/A   Clear
12:15 PM 70.7 °F 54.1 °F 56% 30.26 in 10.0 mi ENE 6.9 mph - N/A   Clear
12:35 PM 71.6 °F 55.0 °F 56% 30.25 in 10.0 mi East 3.5 mph - N/A   Scattered Clouds
12:55 PM 72.5 °F 55.0 °F 54% 30.25 in 10.0 mi North 5.8 mph - N/A   Scattered Clouds
1:15 PM 72.7 °F 55.0 °F 54% 30.24 in 10.0 mi North 6.9 mph - N/A   Scattered Clouds
1:35 PM - - N/A% 30.23 in 10.0 mi NNE 5.8 mph - N/A   Unknown
1:55 PM 73.6 °F 53.4 °F 49% 30.22 in 10.0 mi North 8.1 mph - N/A   Unknown
2:15 PM 73.9 °F 53.2 °F 48% 30.22 in 7.0 mi NNE 4.6 mph - N/A   Mostly Cloudy
2:35 PM 74.3 °F 53.4 °F 48% 30.21 in 10.0 mi NE 6.9 mph - N/A   Mostly Cloudy
2:55 PM 74.1 °F 52.2 °F 46% 30.20 in 10.0 mi Calm Calm - N/A   Scattered Clouds
3:15 PM 73.8 °F 52.5 °F 47% 30.20 in 10.0 mi North 4.6 mph - N/A   Scattered Clouds
3:35 PM 74.5 °F 52.3 °F 46% 30.19 in 10.0 mi Calm Calm - N/A   Scattered Clouds
3:55 PM 75.2 °F 52.0 °F 44% 30.18 in 10.0 mi North 6.9 mph - N/A   Clear
4:15 PM 75.2 °F 51.8 °F 44% 30.18 in 10.0 mi ENE 3.5 mph - N/A   Scattered Clouds
4:35 PM 73.8 °F 50.4 °F 44% 30.18 in 10.0 mi Calm Calm - N/A   Scattered Clouds
4:55 PM 75.4 °F 51.1 °F 42% 30.18 in 10.0 mi North 5.8 mph - N/A   Clear
5:15 PM 74.1 °F 51.8 °F 46% 30.17 in 10.0 mi Calm Calm - N/A   Scattered Clouds
5:35 PM 74.3 °F 52.3 °F 46% 30.18 in 10.0 mi ENE 3.5 mph - N/A   Clear
5:55 PM 73.8 °F 51.3 °F 45% 30.18 in 10.0 mi North 6.9 mph - N/A   Clear
6:15 PM 72.9 °F 52.7 °F 49% 30.18 in 10.0 mi Calm Calm - N/A   Scattered Clouds
6:35 PM 71.4 °F 54.3 °F 55% 30.18 in 10.0 mi Calm Calm - N/A   Clear
6:55 PM 68.0 °F 55.4 °F 64% 30.18 in 10.0 mi Calm Calm - N/A   Clear
7:15 PM 63.7 °F 57.6 °F 80% 30.18 in 10.0 mi Calm Calm - N/A   Clear
7:35 PM 62.6 °F 56.8 °F 81% 30.17 in 10.0 mi Calm Calm - N/A   Clear
7:55 PM 61.2 °F 56.3 °F 84% 30.18 in 10.0 mi Calm Calm - N/A   Clear
8:15 PM 59.9 °F 55.9 °F 87% 30.18 in 10.0 mi Calm Calm - N/A   Clear
8:35 PM 58.6 °F 55.6 °F 90% 30.19 in 10.0 mi Calm Calm - N/A   Clear
8:55 PM 58.1 °F 55.4 °F 91% 30.19 in 10.0 mi Calm Calm - N/A   Clear
9:15 PM 57.4 °F 55.0 °F 92% 30.20 in 10.0 mi Calm Calm - N/A   Clear
9:35 PM 56.8 °F 54.5 °F 92% 30.20 in 10.0 mi Calm Calm - N/A   Clear
9:55 PM 56.5 °F 54.5 °F 93% 30.21 in 10.0 mi Calm Calm - N/A   Clear
10:15 PM 56.3 °F 54.1 °F 92% 30.21 in 10.0 mi Calm Calm - N/A   Clear
10:35 PM 55.6 °F 54.0 °F 94% 30.21 in 10.0 mi Calm Calm - N/A   Clear
10:55 PM 55.4 °F 53.8 °F 94% 30.21 in 10.0 mi Calm Calm - N/A   Clear
11:15 PM 55.0 °F 53.6 °F 95% 30.21 in 10.0 mi Calm Calm - N/A   Clear
11:35 PM 54.5 °F 53.1 °F 95% 30.20 in 10.0 mi Calm Calm - N/A   Clear
11:55 PM 54.5 °F 52.9 °F 94% 30.21 in 10.0 mi Calm Calm - N/A   Clear